Location: Kruen
(47.5000°N, 11.5000°E)
Time: 09:32:14
(UTC+01:00)

N. Korean satellite - Visible Passes

Search period start: 29 January 2022 00:00
Search period end: 08 February 2022 00:00
Orbit: 447 x 490 km, 97.3° (Epoch: 28 January)

Date Brightness Start Highest point End Pass type
(mag) Time Alt. Az. Time Alt. Az. Time Alt. Az.
29 Jan 7.3 05:18:49 10° NNE 05:22:25 54° E 05:24:38 21° S visible
29 Jan 8.4 06:53:15 10° NNW 06:55:07 14° WNW 06:56:58 10° W visible
30 Jan 8.8 04:49:59 10° NE 04:53:02 24° E 04:55:38 12° SSE visible
30 Jan 7.5 06:23:02 10° N 06:26:07 26° WNW 06:29:10 10° SW visible
31 Jan 9.9 04:22:07 10° ENE 04:23:30 12° E 04:24:54 10° ESE visible
31 Jan 6.6 05:53:25 10° N 05:57:00 56° WNW 06:00:31 10° SSW visible
01 Feb 7.0 05:24:07 10° NNE 05:27:44 63° E 05:31:18 10° S visible
01 Feb 8.5 06:58:55 10° NW 07:00:22 12° WNW 07:01:48 10° W visible
02 Feb 8.6 04:55:09 10° NE 04:58:20 28° E 05:01:27 10° SSE visible
02 Feb 7.7 06:28:26 10° NNW 06:31:21 23° WNW 06:34:15 10° WSW visible
03 Feb 9.8 04:26:56 10° ENE 04:28:47 13° E 04:30:38 10° ESE visible
03 Feb 6.7 05:58:41 10° N 06:02:12 48° WNW 06:05:40 10° SSW visible
04 Feb 6.7 05:29:17 10° NNE 05:32:56 73° ESE 05:36:30 10° S visible
05 Feb 8.4 05:00:13 10° NNE 05:03:31 32° E 05:06:44 10° SSE visible
05 Feb 7.9 06:33:43 10° NNW 06:36:27 20° WNW 06:39:10 10° WSW visible
06 Feb 9.6 04:31:46 10° NE 04:33:57 15° E 04:36:07 10° SE visible
06 Feb 6.9 06:03:51 10° N 06:07:17 41° WNW 06:10:40 10° SW visible
07 Feb 6.5 05:34:22 10° NNE 05:38:00 85° ESE 05:41:34 10° SSW visible
